DW2721 Weather Reports


Display with metric or nautical units.
time (UTC)temp
F
wind
direction
speed
MPH
gust
MPH
rain 1hr
in
rain 24hr
in
rain mn
in
humidity
%
barometer
mb
20260504231524 73 175 1.0 9.0 0.00 0.00 0.00 51 1014.6
20260504230503 73 190 2.0 8.0 0.00 0.00 0.00 50 1014.6
20260504225503 74 214 2.0 7.0 0.00 0.00 0.00 50 1014.7
20260504224514 74 174 1.0 4.0 0.00 0.00 0.00 50 1014.7
20260504223504 74 173 1.0 7.0 0.00 0.00 0.00 49 1014.9
20260504222508 75 161 2.0 7.0 0.00 0.00 0.00 48 1014.8
20260504221520 75 128 1.0 8.0 0.00 0.00 0.00 50 1014.7
20260504220510 76 139 2.0 9.0 0.00 0.00 0.00 46 1014.8
20260504215504 76 206 1.0 5.0 0.00 0.00 0.00 47 1015.0
20260504215005 76 260 3.0 5.0 0.00 0.00 0.00 46 1015.1
20260504214508 76 201 2.0 5.0 0.00 0.00 0.00 46 1015.1
20260504214009 76 157 2.0 5.0 0.00 0.00 0.00 45 1015.2
20260504213505 76 263 1.0 5.0 0.00 0.00 0.00 46 1015.0
20260504213018 76 170 1.0 6.0 0.00 0.00 0.00 46 1015.2
20260504212504 76 181 2.0 6.0 0.00 0.00 0.00 45 1015.1
20260504212008 76 77 0.0 8.0 0.00 0.00 0.00 44 1015.1
20260504211521 76 165 3.0 8.0 0.00 0.00 0.00 48 1015.2
20260504210510 76 184 2.0 6.0 0.00 0.00 0.00 45 1015.6
20260504205508 76 214 1.0 8.0 0.00 0.00 0.00 45 1015.5
20260504205009 76 145 3.0 8.0 0.00 0.00 0.00 46 1015.6
20260504204005 76 255 0.0 10.0 0.00 0.00 0.00 46 1015.6
20260504203506 76 265 3.0 10.0 0.00 0.00 0.00 44 1015.7
20260504202506 76 169 1.0 8.0 0.00 0.00 0.00 45 1015.9
20260504202007 76 214 4.0 8.0 0.00 0.00 0.00 44 1016.1
20260504201008 76 231 4.0 7.0 0.00 0.00 0.00 44 1016.2
20260504200505 77 109 2.0 10.0 0.00 0.00 0.00 42 1016.2
20260504195507 77 236 1.0 6.0 0.00 0.00 0.00 44 1016.6
20260504195007 77 190 2.0 6.0 0.00 0.00 0.00 47 1016.6
20260504194009 77 229 1.0 5.0 0.00 0.00 0.00 45 1016.8
20260504193509 77 250 2.0 5.0 0.00 0.00 0.00 41 1016.9
20260504192505 77 210 2.0 6.0 0.00 0.00 0.00 43 1017.3
20260504192007 76 108 2.0 7.0 0.00 0.00 0.00 43 1017.4
20260504191005 77 158 0.0 5.0 0.00 0.00 0.00 43 1017.1
20260504190505 77 260 2.0 8.0 0.00 0.00 0.00 42 1017.0
20260504190019 77 85 2.0 8.0 0.00 0.00 0.00 46 1017.0
20260504185505 77 91 2.0 7.0 0.00 0.00 0.00 43 1017.2
20260504185009 77 228 3.0 8.0 0.00 0.00 0.00 47 1017.3
20260504184008 76 212 2.0 9.0 0.00 0.00 0.00 42 1017.5
20260504183512 77 143 3.0 9.0 0.00 0.00 0.00 42 1017.6
20260504183026 77 239 2.0 6.0 0.00 0.00 0.00 43 1017.6
20260504182507 77 223 2.0 8.0 0.00 0.00 0.00 42 1017.8
20260504182011 77 110 1.0 8.0 0.00 0.00 0.00 45 1017.8
20260504181510 76 211 1.0 6.0 0.00 0.00 0.00 42 1017.9
20260504181005 76 226 2.0 6.0 0.00 0.00 0.00 43 1018.0
20260504180507 77 220 3.0 6.0 0.00 0.00 0.00 44 1018.0
20260504180016 76 130 1.0 7.0 0.00 0.00 0.00 45 1017.9
20260504175504 76 205 2.0 7.0 0.00 0.00 0.00 42 1017.9
20260504175006 77 169 3.0 5.0 0.00 0.00 0.00 42 1017.9
20260504174520 77 34 2.0 5.0 0.00 0.00 0.00 44 1017.9
20260504174012 76 207 1.0 6.0 0.00 0.00 0.00 42 1018.0
20260504173511 77 210 1.0 6.0 0.00 0.00 0.00 42 1018.2
20260504173022 76 199 2.0 4.0 0.00 0.00 0.00 42 1018.1
20260504172507 76 259 1.0 6.0 0.00 0.00 0.00 39 1018.1
20260504172009 76 278 1.0 8.0 0.00 0.00 0.00 39 1018.2
20260504171526 76 219 3.0 8.0 0.00 0.00 0.00 41 1018.0
20260504171014 76 96 1.0 7.0 0.00 0.00 0.00 45 1017.9
20260504170508 75 152 2.0 7.0 0.00 0.00 0.00 44 1017.9
20260504151008 74 177 0.0 3.0 0.00 0.00 0.00 54 1018.6
20260504150512 73 117 0.0 2.0 0.00 0.00 0.00 54 1018.8
20260504141000 68 236 0.0 2.0 0.00 0.00 0.00 67 1018.7
20260504140504 68 233 0.0 1.0 0.00 0.00 0.00 69 1018.7
20260504130508 57 211 0.0 0.0 0.00 0.00 0.00 97 1018.7
20260504110508 49 211 0.0 0.0 0.00 0.00 0.00 96 1017.9
20260504100504 50 211 0.0 0.0 0.00 0.00 0.00 95 1018.1
20260504081537 52 211 0.0 0.0 0.00 0.00 0.00 95 1018.0
20260504081008 52 211 0.0 0.0 0.00 0.00 0.00 95 1018.0
20260504080508 52 211 0.0 0.0 0.00 0.00 0.00 95 1018.1
20260504050504 54 211 0.0 0.0 0.00 0.00 0.00 94 1019.4
20260504050020 54 211 0.0 0.0 0.00 0.00 0.00 94 1019.5
20260504045505 54 211 0.0 0.0 0.00 0.00 0.00 94 1019.5
20260504045006 54 211 0.0 0.0 0.00 0.00 0.00 93 1019.5
20260504044523 55 211 0.0 0.0 0.00 0.00 0.00 93 1019.5
20260504044007 55 211 0.0 0.0 0.00 0.00 0.00 94 1019.5
20260504043503 55 211 0.0 0.0 0.00 0.00 0.00 94 1019.5
20260504043005 55 211 0.0 0.0 0.00 0.00 0.00 93 1019.5
20260504042504 55 211 0.0 0.0 0.00 0.00 0.00 93 1019.5
20260504042005 55 211 0.0 0.0 0.00 0.00 0.00 93 1019.6
20260504041509 55 211 0.0 0.0 0.00 0.00 0.00 93 1019.5
20260504041003 55 211 0.0 0.0 0.00 0.00 0.00 93 1019.6
20260504040505 55 211 0.0 0.0 0.00 0.00 0.00 93 1019.5
20260504040016 55 211 0.0 0.0 0.00 0.00 0.00 93 1019.6
20260504035503 55 211 0.0 0.0 0.00 0.00 0.00 93 1019.5
20260504035004 55 211 0.0 0.0 0.00 0.00 0.00 93 1019.6
20260504034522 55 211 0.0 0.0 0.00 0.00 0.00 92 1019.6
20260504034006 55 211 0.0 0.0 0.00 0.00 0.00 92 1019.5
20260504033506 56 211 0.0 0.0 0.00 0.00 0.00 92 1019.6
20260504033023 56 211 0.0 0.0 0.00 0.00 0.00 92 1019.6
20260504032506 56 211 0.0 0.0 0.00 0.00 0.00 92 1019.6
20260504032006 56 211 0.0 0.0 0.00 0.00 0.00 92 1019.6
20260504031506 56 211 0.0 0.0 0.00 0.00 0.00 92 1019.6
20260504031004 56 211 0.0 0.0 0.00 0.00 0.00 91 1019.6
20260504030505 56 211 0.0 0.0 0.00 0.00 0.00 91 1019.5
20260504030021 56 211 0.0 0.0 0.00 0.00 0.00 91 1019.5
20260504025504 56 211 0.0 1.0 0.00 0.00 0.00 91 1019.5
20260504025004 57 211 0.0 1.0 0.00 0.00 0.00 91 1019.5
20260504024517 57 212 0.0 0.0 0.00 0.00 0.00 90 1019.5
20260504024003 57 211 0.0 0.0 0.00 0.00 0.00 90 1019.4
20260504023508 57 211 0.0 0.0 0.00 0.00 0.00 90 1019.3
20260504023021 57 211 0.0 0.0 0.00 0.00 0.00 89 1019.3
20260504022507 57 211 0.0 0.0 0.00 0.00 0.00 89 1019.3
20260504022007 57 211 0.0 0.0 0.00 0.00 0.00 88 1019.2
20260504021522 58 211 0.0 0.0 0.00 0.00 0.00 88 1019.2
20260504021007 58 211 0.0 0.0 0.00 0.00 0.00 88 1019.1
20260504020508 58 211 0.0 0.0 0.00 0.00 0.00 87 1019.1
20260504020006 58 211 0.0 0.0 0.00 0.00 0.00 87 1019.1
20260504015503 58 211 0.0 0.0 0.00 0.00 0.00 86 1018.9
20260504015006 59 211 0.0 0.0 0.00 0.00 0.00 85 1018.9
20260504014517 59 211 0.0 0.0 0.00 0.00 0.00 85 1018.8
20260504014003 59 211 0.0 0.0 0.00 0.00 0.00 85 1018.8
20260504013504 60 211 0.0 0.0 0.00 0.00 0.00 84 1018.8
20260504013031 60 211 0.0 0.0 0.00 0.00 0.00 84 1018.8
20260504012504 60 211 0.0 0.0 0.00 0.00 0.00 83 1018.7
20260504012007 61 211 0.0 0.0 0.00 0.00 0.00 82 1018.6
20260504011523 61 211 0.0 0.0 0.00 0.00 0.00 81 1018.6
20260504011006 61 211 0.0 0.0 0.00 0.00 0.00 78 1018.5
20260504010507 62 211 0.0 0.0 0.00 0.00 0.00 79 1018.5
20260504010026 62 211 0.0 0.0 0.00 0.00 0.00 77 1018.5
20260504005510 63 211 0.0 0.0 0.00 0.00 0.00 75 1018.4
20260504005014 63 211 0.0 0.0 0.00 0.00 0.00 77 1018.5
20260504004510 64 211 0.0 0.0 0.00 0.00 0.00 77 1018.5
20260504004004 64 211 0.0 0.0 0.00 0.00 0.00 76 1018.5
20260504003504 65 211 0.0 0.0 0.00 0.00 0.00 75 1018.4
20260504003016 66 211 0.0 0.0 0.00 0.00 0.00 71 1018.5
20260504002508 66 211 0.0 0.0 0.00 0.00 0.00 71 1018.5
20260504002006 67 211 0.0 0.0 0.00 0.00 0.00 72 1018.5
20260504001519 68 211 0.0 0.0 0.00 0.00 0.00 70 1018.5
20260504001005 68 211 0.0 0.0 0.00 0.00 0.00 65 1018.4
20260504000506 69 211 0.0 0.0 0.00 0.00 0.00 66 1018.3
20260504000023 70 211 0.0 0.0 0.00 0.00 0.00 62 1018.3
20260503235507 70 211 0.0 0.0 0.00 0.00 0.00 60 1018.4
20260503235007 71 211 0.0 1.0 0.00 0.00 0.00 57 1018.4
20260503234527 72 211 0.0 1.0 0.00 0.00 0.00 49 1018.4
20260503234009 72 144 0.0 2.0 0.00 0.00 0.00 49 1018.4
20260503233509 72 117 0.0 3.0 0.00 0.00 0.00 49 1018.5
20260503233018 72 191 0.0 3.0 0.00 0.00 0.00 50 1018.6
20260503232502 73 181 0.0 1.0 0.00 0.00 0.00 47 1018.6
20260503232010 73 258 0.0 4.0 0.00 0.00 0.00 46 1018.5